| time (UTC) | temp C | wind direction | speed KPH | gust KPH | rain 1hr cm | rain 24hr cm | rain mn cm | humidity % | barometer mb |
| 20260506051032 | 15 | 360 | 3.2 | 9.7 | 0.00 | 0.64 | 0.58 | 51 | 1014.9 |
| 20260506050533 | 15 | 360 | 1.6 | 8.0 | 0.00 | 0.64 | 0.58 | 51 | 1014.9 |
| 20260506045034 | 15 | 0 | 0.0 | 4.8 | 0.00 | 0.64 | 0.58 | 50 | 1014.8 |
| 20260506044546 | 16 | 0 | 0.0 | 12.9 | 0.00 | 0.64 | 0.58 | 49 | 1014.7 |
| 20260506044034 | 16 | 0 | 1.6 | 12.9 | 0.00 | 0.64 | 0.58 | 49 | 1014.5 |
| 20260506043533 | 16 | 360 | 1.6 | 12.9 | 0.00 | 0.64 | 0.58 | 48 | 1014.6 |
| 20260506043049 | 16 | 360 | 1.6 | 8.0 | 0.00 | 0.64 | 0.58 | 48 | 1014.5 |
| 20260506042534 | 16 | 0 | 1.6 | 8.0 | 0.00 | 0.64 | 0.58 | 48 | 1014.4 |
| 20260506042031 | 16 | 360 | 1.6 | 12.9 | 0.00 | 0.64 | 0.58 | 47 | 1014.4 |
| 20260506041540 | 16 | 0 | 4.8 | 12.9 | 0.00 | 0.64 | 0.58 | 47 | 1014.3 |
| 20260506041032 | 16 | 360 | 4.8 | 12.9 | 0.00 | 0.64 | 0.58 | 47 | 1014.2 |
| 20260506040532 | 16 | 360 | 0.0 | 16.1 | 0.00 | 0.64 | 0.58 | 46 | 1014.2 |
| 20260506040050 | 16 | 0 | 4.8 | 16.1 | 0.00 | 0.64 | 0.58 | 45 | 1014.1 |
| 20260506035534 | 17 | 360 | 8.0 | 16.1 | 0.00 | 0.64 | 0.58 | 45 | 1014.0 |
| 20260506035034 | 17 | 240 | 4.8 | 11.3 | 0.00 | 0.64 | 0.58 | 45 | 1014.0 |
| 20260506034541 | 17 | 226 | 3.2 | 19.3 | 0.00 | 0.64 | 0.58 | 44 | 1013.9 |
| 20260506034031 | 17 | 0 | 4.8 | 19.3 | 0.00 | 0.64 | 0.58 | 44 | 1013.9 |
| 20260506033533 | 17 | 360 | 6.4 | 19.3 | 0.00 | 0.64 | 0.58 | 43 | 1013.9 |
| 20260506033039 | 17 | 236 | 6.4 | 17.7 | 0.00 | 0.64 | 0.58 | 42 | 1013.8 |
| 20260506032532 | 17 | 236 | 8.0 | 17.7 | 0.00 | 0.64 | 0.58 | 42 | 1013.6 |
| 20260506032034 | 17 | 242 | 8.0 | 14.5 | 0.00 | 0.64 | 0.58 | 42 | 1013.6 |
| 20260506031542 | 17 | 360 | 6.4 | 14.5 | 0.00 | 0.64 | 0.58 | 41 | 1013.5 |
| 20260506031033 | 17 | 0 | 4.8 | 20.9 | 0.00 | 0.64 | 0.58 | 41 | 1013.5 |
| 20260506030532 | 18 | 242 | 6.4 | 20.9 | 0.00 | 0.64 | 0.58 | 40 | 1013.3 |
| 20260506030040 | 18 | 250 | 8.0 | 17.7 | 0.00 | 0.64 | 0.58 | 40 | 1013.2 |
| 20260506025532 | 18 | 250 | 6.4 | 17.7 | 0.00 | 0.64 | 0.58 | 40 | 1013.2 |
| 20260506025031 | 18 | 269 | 4.8 | 14.5 | 0.00 | 0.64 | 0.58 | 40 | 1013.1 |
| 20260506024548 | 18 | 254 | 6.4 | 19.3 | 0.00 | 0.64 | 0.58 | 40 | 1013.1 |
| 20260506024032 | 18 | 250 | 9.7 | 19.3 | 0.00 | 0.64 | 0.58 | 39 | 1013.1 |
| 20260506023534 | 18 | 262 | 11.3 | 19.3 | 0.00 | 0.64 | 0.58 | 38 | 1013.0 |
| 20260506023045 | 18 | 242 | 6.4 | 19.3 | 0.00 | 0.64 | 0.58 | 38 | 1012.8 |
| 20260506022535 | 18 | 260 | 6.4 | 19.3 | 0.00 | 0.64 | 0.58 | 38 | 1012.7 |
| 20260506022031 | 18 | 258 | 8.0 | 19.3 | 0.00 | 0.64 | 0.58 | 38 | 1012.6 |
| 20260506021544 | 18 | 249 | 9.7 | 20.9 | 0.00 | 0.64 | 0.58 | 37 | 1012.5 |
| 20260506021031 | 19 | 264 | 8.0 | 25.7 | 0.00 | 0.64 | 0.58 | 37 | 1012.3 |
| 20260506020530 | 19 | 263 | 12.9 | 25.7 | 0.00 | 0.64 | 0.58 | 36 | 1012.1 |
| 20260506020040 | 19 | 260 | 11.3 | 24.1 | 0.00 | 0.64 | 0.58 | 36 | 1012.1 |
| 20260506015531 | 20 | 281 | 12.9 | 24.1 | 0.00 | 0.64 | 0.58 | 36 | 1012.0 |
| 20260506015032 | 20 | 239 | 11.3 | 25.7 | 0.00 | 0.64 | 0.58 | 35 | 1012.0 |
| 20260506014557 | 20 | 271 | 12.9 | 25.7 | 0.00 | 0.64 | 0.58 | 35 | 1011.9 |
| 20260506014033 | 20 | 236 | 8.0 | 25.7 | 0.00 | 0.64 | 0.58 | 35 | 1011.8 |
| 20260506013531 | 20 | 232 | 12.9 | 25.7 | 0.00 | 0.64 | 0.58 | 35 | 1011.8 |
| 20260506013039 | 20 | 233 | 11.3 | 22.5 | 0.00 | 0.64 | 0.58 | 34 | 1011.8 |
| 20260506012534 | 21 | 195 | 11.3 | 24.1 | 0.00 | 0.64 | 0.58 | 34 | 1011.7 |
| 20260506012031 | 21 | 242 | 6.4 | 25.7 | 0.00 | 0.64 | 0.58 | 34 | 1011.7 |
| 20260506011601 | 21 | 257 | 12.9 | 27.4 | 0.00 | 0.64 | 0.58 | 32 | 1011.7 |
| 20260506011033 | 21 | 205 | 9.7 | 27.4 | 0.00 | 0.64 | 0.58 | 33 | 1011.7 |
| 20260506010534 | 21 | 225 | 14.5 | 27.4 | 0.00 | 0.64 | 0.58 | 33 | 1011.7 |
| 20260506010035 | 21 | 248 | 14.5 | 27.4 | 0.00 | 0.64 | 0.58 | 31 | 1011.5 |
| 20260506005531 | 21 | 224 | 11.3 | 29.0 | 0.00 | 0.64 | 0.58 | 31 | 1011.5 |
| 20260506005033 | 21 | 203 | 14.5 | 29.0 | 0.00 | 0.64 | 0.58 | 31 | 1011.5 |
| 20260506004558 | 21 | 226 | 8.0 | 27.4 | 0.00 | 0.64 | 0.58 | 31 | 1011.4 |
| 20260506004033 | 21 | 233 | 16.1 | 32.2 | 0.00 | 0.64 | 0.58 | 30 | 1011.4 |
| 20260506003533 | 21 | 223 | 17.7 | 33.8 | 0.00 | 0.64 | 0.58 | 29 | 1011.4 |
| 20260506003039 | 21 | 254 | 12.9 | 33.8 | 0.00 | 0.64 | 0.58 | 29 | 1011.3 |
| 20260506002532 | 21 | 215 | 12.9 | 38.6 | 0.00 | 0.64 | 0.58 | 29 | 1011.3 |
| 20260506002034 | 21 | 216 | 16.1 | 38.6 | 0.00 | 0.64 | 0.58 | 27 | 1011.3 |
| 20260506001543 | 21 | 204 | 16.1 | 38.6 | 0.00 | 0.64 | 0.58 | 28 | 1011.4 |
| 20260506001034 | 22 | 250 | 16.1 | 32.2 | 0.00 | 0.64 | 0.58 | 27 | 1011.4 |
| 20260506000534 | 22 | 215 | 17.7 | 37.0 | 0.00 | 0.64 | 0.58 | 28 | 1011.3 |
| 20260506000111 | 22 | 236 | 20.9 | 37.0 | 0.00 | 0.64 | 0.58 | 27 | 1011.2 |
| 20260505235532 | 22 | 248 | 17.7 | 37.0 | 0.00 | 0.64 | 0.58 | 27 | 1011.1 |
| 20260505235033 | 22 | 242 | 16.1 | 40.2 | 0.00 | 0.64 | 0.58 | 27 | 1011.0 |
| 20260505234545 | 22 | 225 | 19.3 | 40.2 | 0.00 | 0.64 | 0.58 | 25 | 1011.1 |
| 20260505234035 | 22 | 242 | 20.9 | 40.2 | 0.00 | 0.64 | 0.58 | 23 | 1011.1 |
| 20260505233534 | 22 | 256 | 20.9 | 40.2 | 0.00 | 0.64 | 0.58 | 24 | 1011.1 |
| 20260505233044 | 22 | 220 | 20.9 | 41.8 | 0.00 | 0.64 | 0.58 | 24 | 1011.0 |
| 20260505232533 | 22 | 260 | 19.3 | 45.1 | 0.00 | 0.64 | 0.58 | 23 | 1011.0 |
| 20260505232032 | 22 | 243 | 22.5 | 45.1 | 0.00 | 0.64 | 0.58 | 24 | 1011.0 |
| 20260505231541 | 22 | 234 | 17.7 | 35.4 | 0.00 | 0.64 | 0.58 | 23 | 1010.9 |
| 20260505231032 | 23 | 213 | 17.7 | 35.4 | 0.00 | 0.64 | 0.58 | 24 | 1010.9 |
| 20260505230531 | 23 | 159 | 17.7 | 35.4 | 0.00 | 0.64 | 0.58 | 25 | 1010.8 |
| 20260505230058 | 22 | 246 | 20.9 | 38.6 | 0.00 | 0.64 | 0.58 | 26 | 1010.9 |
| 20260505225534 | 23 | 205 | 19.3 | 38.6 | 0.00 | 0.64 | 0.58 | 26 | 1010.9 |
| 20260505225037 | 23 | 159 | 20.9 | 37.0 | 0.00 | 0.64 | 0.58 | 26 | 1010.9 |
| 20260505224542 | 23 | 229 | 19.3 | 38.6 | 0.00 | 0.64 | 0.58 | 28 | 1010.8 |
| 20260505224033 | 23 | 229 | 16.1 | 38.6 | 0.00 | 0.64 | 0.58 | 29 | 1011.0 |
| 20260505223534 | 23 | 250 | 14.5 | 40.2 | 0.00 | 0.64 | 0.58 | 29 | 1010.9 |
| 20260505223048 | 23 | 202 | 20.9 | 40.2 | 0.00 | 0.64 | 0.58 | 30 | 1011.0 |
| 20260505222535 | 23 | 221 | 19.3 | 40.2 | 0.00 | 0.64 | 0.58 | 30 | 1011.2 |
| 20260505222033 | 23 | 154 | 17.7 | 32.2 | 0.00 | 0.64 | 0.58 | 31 | 1011.2 |
| 20260505221554 | 23 | 242 | 14.5 | 38.6 | 0.00 | 0.64 | 0.58 | 32 | 1011.2 |
| 20260505221036 | 23 | 202 | 17.7 | 38.6 | 0.00 | 0.64 | 0.58 | 32 | 1011.2 |
| 20260505220532 | 23 | 235 | 16.1 | 32.2 | 0.00 | 0.64 | 0.58 | 30 | 1011.1 |
| 20260505220045 | 23 | 222 | 9.7 | 29.0 | 0.00 | 0.64 | 0.58 | 33 | 1011.2 |
| 20260505215532 | 23 | 185 | 11.3 | 35.4 | 0.00 | 0.64 | 0.58 | 30 | 1011.3 |
| 20260505215032 | 23 | 216 | 16.1 | 35.4 | 0.00 | 0.64 | 0.58 | 30 | 1011.3 |
| 20260505214543 | 23 | 212 | 11.3 | 30.6 | 0.00 | 0.64 | 0.58 | 33 | 1011.3 |
| 20260505214032 | 23 | 196 | 8.0 | 30.6 | 0.00 | 0.64 | 0.58 | 33 | 1011.5 |
| 20260505213533 | 22 | 165 | 14.5 | 30.6 | 0.00 | 0.64 | 0.58 | 33 | 1011.5 |
| 20260505213040 | 22 | 198 | 12.9 | 37.0 | 0.00 | 0.64 | 0.58 | 34 | 1011.6 |
| 20260505212531 | 23 | 226 | 20.9 | 37.0 | 0.00 | 0.64 | 0.58 | 31 | 1011.6 |
| 20260505212032 | 23 | 197 | 17.7 | 35.4 | 0.00 | 0.64 | 0.58 | 33 | 1011.6 |
| 20260505211542 | 23 | 186 | 16.1 | 32.2 | 0.00 | 0.64 | 0.58 | 34 | 1011.7 |
| 20260505211034 | 23 | 186 | 14.5 | 30.6 | 0.00 | 0.64 | 0.58 | 34 | 1011.6 |
| 20260505210535 | 23 | 186 | 16.1 | 35.4 | 0.00 | 0.64 | 0.58 | 33 | 1011.7 |
| 20260505210042 | 23 | 229 | 16.1 | 35.4 | 0.00 | 0.64 | 0.58 | 34 | 1011.8 |
| 20260505205533 | 23 | 232 | 17.7 | 35.4 | 0.00 | 0.64 | 0.58 | 34 | 1011.8 |
| 20260505205033 | 23 | 215 | 22.5 | 35.4 | 0.00 | 0.64 | 0.58 | 34 | 1012.0 |
| 20260505204552 | 23 | 165 | 17.7 | 35.4 | 0.00 | 0.64 | 0.58 | 34 | 1011.8 |
| 20260505204032 | 23 | 193 | 16.1 | 37.0 | 0.00 | 0.64 | 0.58 | 34 | 1012.0 |
| 20260505203535 | 23 | 215 | 20.9 | 37.0 | 0.00 | 0.64 | 0.58 | 33 | 1011.9 |
| 20260505203053 | 23 | 179 | 16.1 | 37.0 | 0.00 | 0.64 | 0.58 | 33 | 1012.0 |
| 20260505202533 | 23 | 188 | 20.9 | 43.5 | 0.00 | 0.64 | 0.58 | 35 | 1011.9 |
| 20260505202033 | 23 | 191 | 22.5 | 43.5 | 0.00 | 0.64 | 0.58 | 36 | 1011.9 |
| 20260505201543 | 23 | 218 | 17.7 | 45.1 | 0.00 | 0.64 | 0.58 | 35 | 1011.9 |
| 20260505201033 | 23 | 205 | 19.3 | 45.1 | 0.00 | 0.64 | 0.58 | 36 | 1012.0 |
| 20260505200534 | 23 | 220 | 19.3 | 40.2 | 0.00 | 0.64 | 0.58 | 36 | 1011.9 |
| 20260505200038 | 23 | 210 | 17.7 | 40.2 | 0.00 | 0.64 | 0.58 | 37 | 1011.9 |
| 20260505195533 | 23 | 211 | 14.5 | 48.3 | 0.00 | 0.64 | 0.58 | 39 | 1012.1 |
| 20260505195034 | 22 | 223 | 17.7 | 48.3 | 0.00 | 0.64 | 0.58 | 40 | 1012.1 |
| 20260505194603 | 22 | 200 | 20.9 | 45.1 | 0.00 | 0.64 | 0.58 | 39 | 1012.2 |
| 20260505194033 | 22 | 145 | 22.5 | 43.5 | 0.00 | 0.64 | 0.58 | 38 | 1012.0 |
| 20260505193535 | 22 | 198 | 19.3 | 41.8 | 0.00 | 0.64 | 0.58 | 39 | 1012.2 |
| 20260505193045 | 22 | 199 | 20.9 | 41.8 | 0.00 | 0.64 | 0.58 | 40 | 1012.1 |
| 20260505192532 | 22 | 160 | 19.3 | 41.8 | 0.00 | 0.64 | 0.58 | 40 | 1012.2 |
| 20260505192034 | 22 | 193 | 19.3 | 40.2 | 0.00 | 0.64 | 0.58 | 40 | 1012.0 |
| 20260505191554 | 22 | 199 | 20.9 | 38.6 | 0.00 | 0.64 | 0.58 | 40 | 1012.2 |
| 20260505191033 | 22 | 223 | 19.3 | 45.1 | 0.00 | 0.64 | 0.58 | 40 | 1012.3 |
| 20260505190536 | 22 | 196 | 20.9 | 45.1 | 0.00 | 0.64 | 0.58 | 40 | 1012.3 |
| 20260505190040 | 22 | 190 | 12.9 | 43.5 | 0.00 | 0.64 | 0.58 | 41 | 1012.5 |
| 20260505185532 | 22 | 215 | 14.5 | 37.0 | 0.00 | 0.64 | 0.58 | 41 | 1012.7 |
| 20260505185033 | 22 | 212 | 20.9 | 37.0 | 0.00 | 0.64 | 0.58 | 39 | 1012.7 |
| 20260505184538 | 22 | 242 | 12.9 | 35.4 | 0.00 | 0.64 | 0.58 | 39 | 1012.5 |
| 20260505184033 | 22 | 167 | 16.1 | 35.4 | 0.00 | 0.64 | 0.58 | 40 | 1012.6 |
| 20260505183532 | 22 | 229 | 14.5 | 40.2 | 0.00 | 0.64 | 0.58 | 41 | 1012.7 |
| 20260505183040 | 22 | 196 | 17.7 | 40.2 | 0.00 | 0.64 | 0.58 | 43 | 1012.7 |
| 20260505182533 | 22 | 188 | 14.5 | 32.2 | 0.00 | 0.64 | 0.58 | 43 | 1012.7 |
| 20260505182033 | 22 | 214 | 16.1 | 38.6 | 0.00 | 0.64 | 0.58 | 43 | 1012.7 |
| 20260505181545 | 21 | 216 | 16.1 | 38.6 | 0.00 | 0.64 | 0.58 | 43 | 1012.8 |
| 20260505181032 | 21 | 240 | 17.7 | 40.2 | 0.00 | 0.64 | 0.58 | 43 | 1012.8 |
| 20260505180533 | 22 | 210 | 20.9 | 40.2 | 0.00 | 0.64 | 0.58 | 44 | 1012.9 |
| 20260505180045 | 22 | 215 | 16.1 | 30.6 | 0.00 | 0.64 | 0.58 | 45 | 1012.7 |
| 20260505175534 | 22 | 205 | 11.3 | 29.0 | 0.00 | 0.64 | 0.58 | 47 | 1013.0 |
| 20260505175031 | 21 | 212 | 14.5 | 29.0 | 0.00 | 0.64 | 0.58 | 45 | 1012.9 |
| 20260505174541 | 21 | 263 | 9.7 | 25.7 | 0.00 | 0.64 | 0.58 | 47 | 1012.9 |
| 20260505174034 | 21 | 222 | 12.9 | 25.7 | 0.00 | 0.64 | 0.58 | 47 | 1012.9 |
| 20260505173534 | 21 | 202 | 8.0 | 27.4 | 0.00 | 0.64 | 0.58 | 47 | 1012.9 |
| 20260505173038 | 21 | 233 | 11.3 | 27.4 | 0.00 | 0.64 | 0.58 | 48 | 1013.0 |
| 20260505172533 | 21 | 246 | 12.9 | 30.6 | 0.00 | 0.64 | 0.58 | 49 | 1012.9 |
| 20260505172033 | 20 | 238 | 11.3 | 30.6 | 0.00 | 0.64 | 0.58 | 49 | 1012.9 |
| 20260505171538 | 20 | 208 | 11.3 | 24.1 | 0.00 | 0.64 | 0.58 | 50 | 1013.0 |
| 20260505171033 | 20 | 205 | 8.0 | 17.7 | 0.00 | 0.64 | 0.58 | 50 | 1012.9 |
| 20260505170533 | 20 | 205 | 8.0 | 16.1 | 0.00 | 0.64 | 0.58 | 52 | 1013.0 |
| 20260505170046 | 20 | 184 | 3.2 | 16.1 | 0.00 | 0.64 | 0.58 | 55 | 1013.0 |
| 20260505165534 | 20 | 184 | 3.2 | 14.5 | 0.00 | 0.64 | 0.58 | 54 | 1013.1 |
| 20260505165032 | 20 | 0 | 3.2 | 14.5 | 0.00 | 0.64 | 0.58 | 55 | 1013.1 |
| 20260505164537 | 20 | 205 | 4.8 | 16.1 | 0.00 | 0.64 | 0.58 | 57 | 1013.1 |
| 20260505164035 | 19 | 0 | 6.4 | 16.1 | 0.00 | 0.64 | 0.58 | 58 | 1013.1 |
| 20260505163534 | 19 | 0 | 3.2 | 14.5 | 0.00 | 0.64 | 0.58 | 58 | 1013.2 |
| 20260505163042 | 19 | 0 | 0.0 | 12.9 | 0.00 | 0.64 | 0.58 | 59 | 1013.2 |
| 20260505162532 | 19 | 0 | 0.0 | 12.9 | 0.00 | 0.64 | 0.58 | 60 | 1013.3 |
| 20260505162032 | 18 | 215 | 1.6 | 14.5 | 0.00 | 0.64 | 0.58 | 62 | 1013.3 |
| 20260505161541 | 18 | 254 | 6.4 | 14.5 | 0.00 | 0.64 | 0.58 | 62 | 1013.3 |
| 20260505161033 | 18 | 242 | 0.0 | 12.9 | 0.00 | 0.64 | 0.58 | 61 | 1013.3 |
| 20260505160536 | 18 | 245 | 4.8 | 12.9 | 0.00 | 0.64 | 0.58 | 61 | 1013.2 |
| 20260505153034 | 16 | 0 | 0.0 | 0.0 | 0.00 | 0.64 | 0.58 | 74 | 1013.4 |
| 20260505152531 | 16 | 0 | 0.0 | 0.0 | 0.00 | 0.64 | 0.58 | 76 | 1013.5 |
| 20260505152033 | 15 | 0 | 0.0 | 0.0 | 0.00 | 0.64 | 0.58 | 75 | 1013.3 |
| 20260505151545 | 15 | 0 | 0.0 | 0.0 | 0.00 | 0.64 | 0.58 | 77 | 1013.4 |
| 20260505151033 | 15 | 0 | 0.0 | 0.0 | 0.00 | 0.64 | 0.58 | 80 | 1013.2 |
| 20260505150533 | 15 | 0 | 0.0 | 0.0 | 0.00 | 0.64 | 0.58 | 82 | 1013.3 |
| 20260505150104 | 15 | 0 | 0.0 | 0.0 | 0.00 | 0.64 | 0.58 | 83 | 1013.3 |
| 20260505140534 | 13 | 0 | 0.0 | 0.0 | 0.00 | 0.64 | 0.58 | 84 | 1012.8 |
| 20260505125032 | 13 | 0 | 0.0 | 0.0 | 0.03 | 0.64 | 0.58 | 86 | 1012.1 |
| 20260505124547 | 13 | 0 | 0.0 | 0.0 | 0.03 | 0.64 | 0.58 | 86 | 1012.1 |
| 20260505124032 | 13 | 0 | 0.0 | 0.0 | 0.03 | 0.64 | 0.58 | 86 | 1011.9 |
| 20260505123533 | 13 | 0 | 0.0 | 0.0 | 0.03 | 0.64 | 0.58 | 86 | 1011.9 |
| 20260505123049 | 13 | 0 | 0.0 | 0.0 | 0.03 | 0.64 | 0.58 | 86 | 1011.8 |
| 20260505122532 | 13 | 0 | 0.0 | 0.0 | 0.03 | 0.64 | 0.58 | 86 | 1011.8 |
| 20260505122034 | 13 | 0 | 0.0 | 0.0 | 0.03 | 0.64 | 0.58 | 86 | 1011.9 |
| 20260505121613 | 13 | 0 | 0.0 | 0.0 | 0.03 | 0.64 | 0.58 | 86 | 1011.7 |
| 20260505121034 | 13 | 0 | 0.0 | 0.0 | 0.03 | 0.64 | 0.58 | 86 | 1011.8 |
| 20260505120533 | 13 | 0 | 0.0 | 0.0 | 0.03 | 0.64 | 0.58 | 86 | 1011.7 |
| 20260505120038 | 13 | 0 | 0.0 | 0.0 | 0.00 | 0.61 | 0.56 | 87 | 1011.8 |
| 20260505115530 | 13 | 0 | 0.0 | 0.0 | 0.00 | 0.61 | 0.56 | 87 | 1012.0 |
| 20260505115032 | 13 | 0 | 0.0 | 0.0 | 0.00 | 0.61 | 0.56 | 87 | 1011.9 |
| 20260505114538 | 13 | 0 | 0.0 | 0.0 | 0.00 | 0.61 | 0.56 | 87 | 1011.6 |
| 20260505114034 | 13 | 0 | 0.0 | 0.0 | 0.03 | 0.61 | 0.56 | 87 | 1011.7 |
| 20260505113533 | 13 | 0 | 0.0 | 0.0 | 0.03 | 0.61 | 0.56 | 87 | 1011.7 |
| 20260505113048 | 13 | 0 | 0.0 | 0.0 | 0.03 | 0.61 | 0.56 | 87 | 1011.7 |
| 20260505112532 | 13 | 0 | 0.0 | 0.0 | 0.03 | 0.61 | 0.56 | 87 | 1011.7 |
| 20260505112030 | 13 | 0 | 0.0 | 0.0 | 0.03 | 0.61 | 0.56 | 86 | 1011.7 |
| 20260505111540 | 13 | 0 | 0.0 | 0.0 | 0.03 | 0.61 | 0.56 | 86 | 1011.5 |
| 20260505111032 | 13 | 0 | 0.0 | 0.0 | 0.03 | 0.61 | 0.56 | 87 | 1011.7 |
| 20260505110531 | 13 | 0 | 0.0 | 0.0 | 0.03 | 0.61 | 0.56 | 86 | 1011.9 |
| 20260505102032 | 13 | 0 | 0.0 | 0.0 | 0.05 | 0.58 | 0.53 | 87 | 1012.1 |
| 20260505101542 | 13 | 0 | 0.0 | 0.0 | 0.05 | 0.58 | 0.53 | 87 | 1012.2 |
| 20260505101032 | 13 | 0 | 0.0 | 0.0 | 0.08 | 0.58 | 0.53 | 86 | 1012.4 |
| 20260505100532 | 13 | 0 | 0.0 | 0.0 | 0.08 | 0.58 | 0.53 | 86 | 1012.4 |
| 20260505100043 | 13 | 0 | 0.0 | 3.2 | 0.08 | 0.58 | 0.53 | 86 | 1012.5 |
| 20260505095534 | 13 | 0 | 0.0 | 6.4 | 0.08 | 0.58 | 0.53 | 85 | 1012.8 |
| 20260505095034 | 13 | 0 | 0.0 | 9.7 | 0.10 | 0.58 | 0.53 | 85 | 1012.8 |
| 20260505094544 | 13 | 360 | 3.2 | 9.7 | 0.10 | 0.58 | 0.53 | 85 | 1012.9 |
| 20260505094033 | 13 | 360 | 4.8 | 9.7 | 0.10 | 0.56 | 0.51 | 85 | 1013.2 |
| 20260505093533 | 13 | 0 | 0.0 | 9.7 | 0.10 | 0.56 | 0.51 | 85 | 1013.2 |
| 20260505093043 | 13 | 360 | 1.6 | 9.7 | 0.10 | 0.56 | 0.51 | 85 | 1013.4 |
| 20260505092534 | 13 | 360 | 4.8 | 16.1 | 0.13 | 0.56 | 0.51 | 86 | 1013.6 |
| 20260505092033 | 13 | 0 | 6.4 | 16.1 | 0.10 | 0.53 | 0.48 | 86 | 1013.7 |
| 20260505091559 | 13 | 360 | 6.4 | 14.5 | 0.13 | 0.53 | 0.48 | 87 | 1013.7 |
| 20260505091032 | 13 | 0 | 0.0 | 1.6 | 0.10 | 0.51 | 0.46 | 87 | 1013.7 |
| 20260505090532 | 13 | 0 | 0.0 | 12.9 | 0.13 | 0.51 | 0.46 | 87 | 1014.3 |
| 20260505090055 | 13 | 0 | 1.6 | 12.9 | 0.15 | 0.51 | 0.46 | 87 | 1014.5 |
| 20260505085532 | 13 | 360 | 6.4 | 14.5 | 0.15 | 0.51 | 0.46 | 87 | 1014.5 |
| 20260505085034 | 13 | 360 | 6.4 | 14.5 | 0.15 | 0.48 | 0.43 | 88 | 1014.4 |
| 20260505084546 | 13 | 360 | 4.8 | 14.5 | 0.18 | 0.48 | 0.43 | 88 | 1014.6 |
| 20260505084032 | 13 | 360 | 4.8 | 9.7 | 0.15 | 0.46 | 0.41 | 88 | 1015.0 |
| 20260505083533 | 13 | 360 | 6.4 | 9.7 | 0.18 | 0.46 | 0.41 | 87 | 1015.1 |
| 20260505083048 | 13 | 360 | 1.6 | 9.7 | 0.23 | 0.46 | 0.41 | 87 | 1015.2 |
| 20260505082535 | 13 | 0 | 0.0 | 0.0 | 0.23 | 0.43 | 0.38 | 87 | 1015.4 |
| 20260505082033 | 13 | 0 | 0.0 | 0.0 | 0.28 | 0.43 | 0.38 | 87 | 1015.5 |
| 20260505081545 | 13 | 0 | 0.0 | 0.0 | 0.30 | 0.41 | 0.36 | 87 | 1015.7 |
| 20260505081035 | 13 | 0 | 0.0 | 0.0 | 0.33 | 0.41 | 0.36 | 86 | 1015.7 |
| 20260505080536 | 13 | 0 | 0.0 | 6.4 | 0.30 | 0.38 | 0.33 | 86 | 1015.7 |
| 20260505080052 | 13 | 0 | 0.0 | 8.0 | 0.30 | 0.36 | 0.30 | 86 | 1015.7 |
| 20260505075533 | 13 | 0 | 0.0 | 9.7 | 0.30 | 0.36 | 0.30 | 85 | 1015.9 |
| 20260505075034 | 13 | 0 | 1.6 | 9.7 | 0.30 | 0.33 | 0.28 | 85 | 1016.0 |
| 20260505074542 | 14 | 360 | 3.2 | 9.7 | 0.30 | 0.30 | 0.25 | 85 | 1016.0 |
| 20260505074035 | 14 | 360 | 3.2 | 16.1 | 0.28 | 0.28 | 0.23 | 84 | 1016.1 |
| 20260505073531 | 14 | 360 | 6.4 | 16.1 | 0.25 | 0.25 | 0.20 | 83 | 1016.2 |
| 20260505073047 | 14 | 0 | 0.0 | 8.0 | 0.23 | 0.23 | 0.18 | 83 | 1016.1 |
| 20260505072532 | 14 | 0 | 0.0 | 8.0 | 0.20 | 0.20 | 0.15 | 82 | 1015.9 |
| 20260505072033 | 15 | 0 | 0.0 | 8.0 | 0.13 | 0.13 | 0.08 | 81 | 1015.9 |
| 20260505071546 | 15 | 0 | 0.0 | 0.0 | 0.10 | 0.10 | 0.05 | 81 | 1015.9 |
| 20260505071035 | 15 | 0 | 0.0 | 9.7 | 0.08 | 0.08 | 0.03 | 80 | 1016.1 |
| 20260505070533 | 15 | 0 | 0.0 | 14.5 | 0.08 | 0.08 | 0.03 | 79 | 1016.1 |
| 20260505070040 | 15 | 360 | 1.6 | 14.5 | 0.05 | 0.05 | 0.00 | 78 | 1016.1 |
| 20260505065531 | 15 | 360 | 4.8 | 14.5 | 0.05 | 0.05 | 0.05 | 77 | 1015.9 |
| 20260505065033 | 15 | 0 | 1.6 | 9.7 | 0.03 | 0.03 | 0.03 | 76 | 1015.9 |
| 20260505064539 | 15 | 0 | 0.0 | 6.4 | 0.00 | 0.00 | 0.00 | 77 | 1015.9 |
| 20260505064034 | 15 | 0 | 0.0 | 6.4 | 0.00 | 0.00 | 0.00 | 77 | 1016.1 |
| 20260505063531 | 15 | 0 | 0.0 | 0.0 | 0.00 | 0.00 | 0.00 | 77 | 1016.2 |
| 20260505063046 | 15 | 0 | 0.0 | 4.8 | 0.00 | 0.00 | 0.00 | 77 | 1015.9 |
| 20260505062532 | 15 | 0 | 0.0 | 4.8 | 0.00 | 0.00 | 0.00 | 76 | 1015.9 |
| 20260505062035 | 15 | 0 | 0.0 | 6.4 | 0.00 | 0.00 | 0.00 | 76 | 1015.7 |
| 20260505061540 | 15 | 0 | 0.0 | 8.0 | 0.00 | 0.00 | 0.00 | 75 | 1015.9 |
| 20260505061032 | 16 | 360 | 0.0 | 9.7 | 0.00 | 0.00 | 0.00 | 74 | 1015.8 |
| 20260505060536 | 16 | 360 | 1.6 | 17.7 | 0.00 | 0.00 | 0.00 | 73 | 1015.7 |
| 20260505060038 | 16 | 360 | 3.2 | 22.5 | 0.00 | 0.00 | 0.00 | 72 | 1015.9 |
| 20260505055533 | 16 | 360 | 11.3 | 22.5 | 0.00 | 0.00 | 0.00 | 69 | 1015.8 |
| 20260505055034 | 16 | 360 | 12.9 | 24.1 | 0.00 | 0.00 | 0.00 | 67 | 1015.9 |